TimeCDT,TemperatureF,Dew PointF,Humidity,Sea Level PressureIn,VisibilityMPH,Wind Direction,Wind SpeedMPH,Gust SpeedMPH,PrecipitationIn,Events,Conditions,WindDirDegrees,DateUTC
12:58 AM,62.2,62.2,100,29.95,10.0,NW,4.6,-,N/A,,Scattered Clouds,310,2013-07-01 05:58:00
1:58 AM,61.9,61.9,100,29.95,10.0,NNW,5.8,-,N/A,,Clear,330,2013-07-01 06:58:00
2:58 AM,61.0,61.0,100,29.95,10.0,NNW,5.8,-,N/A,,Scattered Clouds,330,2013-07-01 07:58:00
3:58 AM,60.6,60.6,100,29.95,10.0,NNW,5.8,-,0.01,,Clear,330,2013-07-01 08:58:00
4:58 AM,59.9,59.9,100,29.96,10.0,NW,5.8,-,N/A,,Clear,320,2013-07-01 09:58:00
5:58 AM,59.4,59.4,100,29.97,10.0,NW,5.8,-,N/A,,Clear,320,2013-07-01 10:58:00
6:58 AM,59.7,59.7,100,29.98,10.0,NW,5.8,-,N/A,,Clear,320,2013-07-01 11:58:00
7:58 AM,62.4,62.4,100,30.00,10.0,NNW,8.1,-,N/A,,Clear,330,2013-07-01 12:58:00
8:58 AM,65.5,60.8,85,30.01,10.0,NNW,9.2,-,N/A,,Clear,330,2013-07-01 13:58:00
9:58 AM,69.3,61.2,75,30.02,10.0,NNW,8.1,-,N/A,,Clear,330,2013-07-01 14:58:00
10:58 AM,71.1,61.7,72,30.02,10.0,NNW,9.2,-,N/A,,Scattered Clouds,340,2013-07-01 15:58:00
11:58 AM,74.5,62.1,65,30.02,10.0,NNW,11.5,-,N/A,,Mostly Cloudy,340,2013-07-01 16:58:00
12:58 PM,73.2,61.2,66,30.02,10.0,NNW,11.5,-,N/A,,Mostly Cloudy,330,2013-07-01 17:58:00
1:58 PM,76.3,61.7,60,30.01,10.0,NW,10.4,-,N/A,,Mostly Cloudy,310,2013-07-01 18:58:00
2:58 PM,77.4,61.0,57,29.99,10.0,North,16.1,20.7,N/A,,Partly Cloudy,350,2013-07-01 19:58:00
3:58 PM,78.4,60.4,54,29.99,10.0,NW,11.5,19.6,N/A,,Scattered Clouds,310,2013-07-01 20:58:00
4:58 PM,73.6,59.7,62,29.99,10.0,NNW,5.8,-,N/A,,Scattered Clouds,340,2013-07-01 21:58:00
5:58 PM,75.6,61.7,62,29.99,10.0,NW,9.2,-,N/A,,Mostly Cloudy,320,2013-07-01 22:58:00
6:58 PM,73.8,60.1,62,30.00,10.0,North,5.8,-,N/A,,Partly Cloudy,350,2013-07-01 23:58:00
7:58 PM,70.0,57.7,65,30.01,10.0,Variable,5.8,-,N/A,,Clear,0,2013-07-02 00:58:00
8:58 PM,67.8,56.7,67,30.01,10.0,North,4.6,-,N/A,,Clear,350,2013-07-02 01:58:00
9:58 PM,65.3,57.9,77,30.02,10.0,NW,4.6,-,N/A,,Clear,320,2013-07-02 02:58:00
10:58 PM,64.0,57.4,79,30.02,10.0,NNW,5.8,-,N/A,,Clear,340,2013-07-02 03:58:00
11:58 PM,62.1,57.2,84,30.01,10.0,NNW,4.6,-,N/A,,Clear,330,2013-07-02 04:58:00